Presure
182 167 156 145 142 132 158 139 182 131 113 126 141 138 160 185 132 146 163 153 137 121 97 135 121 140 129 154 145 147 149 153 145 169 149 139 127 156 151 138 133 130 147 149 127
132 132 158 123 160 151 146 161 142 143 141 101 160 160 148 186 167 124 152 157 163 145 160 101 142 148 158 154 139 149 152 141 156 138 156 159 158 140 141 158 167 135 151 139 126
134 147 131 180 130 170 124 190 143 152 120 131 199 163 156 137 175 179 162 150 169 168 125 145 107 131 171 149 161 152 136 152 151 143 140 143 149 155 149 137 158 147 158 131 157
163 197 180 127 127 157 181 136 138 173 134 148 159 124 151 130 137 144 170 162 149 156 152 102 132 151 128 165 151 168 149 132 151 154 161 143 151 134 139 147 148 161 149 159 129
248 143 152 133 180 129 149 184 124 142 139 180 127 152 145 199 166 137 163 150 142 167 161 159 153 127 125 146 169 133 166 158 118 152 143 132 146 142 155 164 137 149 139 123 123
282 135 159 130 121 181 166 133 163 133 164 152 147 130 144 176 123 167 156 158 129 141 169 162 162 162 149 138 162 163 150 166 148 151 153 138 140 153 132 167 124 151 153 159 156
260 276 288 201 193 160 152 118 145 150 153 119 185 146 140 186 128 152 128 155 172 147 175 145 163 164 156 155 157 154 105 106 168 149 165 103 102 162 152 165 150 161 168 167 152
291 246 278 279 133 182 138 142 165 150 123 136 146 145 191 155 130 133 157 118 184 192 167 194 170 131 166 115 132 164 120 93 117 162 102 127 156 141 141 158 159 161 150 161 162
278 295 251 136 252 146 145 184 137 149 144 118 174 149 154 188 125 160 143 135 152 175 158 149 154 166 142 156 145 128 165 163 155 134 120 143 144 125 103 151 157 143 151 151 159
234 310 275 261 255 170 132 201 127 149 136 177 138 152 169 155 118 137 137 133 147 172 186 130 143 146 166 157 121 156 116 97 99 116 135 127 96 96 146 147 159 108 152 121 156
203 271 325 254 270 273 193 141 199 167 151 185 146 138 177 156 150 152 169 175 136 190 186 146 161 150 141 155 142 175 141 143 134 157 104 85 93 151 102 150 149 104 165 164 155
216 175 297 282 251 278 255 214 192 157 124 180 137 146 125 145 184 128 184 125 138 141 165 166 166 137 155 175 183 164 149 161 91 148 156 94 113 148 95 97 139 162 159 144 159
226 266 285 281 268 249 280 259 215 200 123 134 160 140 121 130 124 154 170 136 135 189 172 176 170 154 152 148 115 120 188 144 186 139 141 161 146 118 143 140 138 150 165 174 138
251 224 270 294 225 264 250 274 253 217 201 198 129 154 176 167 154 133 136 141 142 197 150 179 163 163 141 192 172 164 164 160 170 150 95 135 147 148 138 174 177 175 128 149 143
210 237 213 188 289 285 241 248 264 247 223 202 173 132 149 153 106 158 124 123 134 137 142 163 145 176 180 148 130 130 142 146 162 162 138 134 131 163 111 104 167 159 142 140 143
313 268 272 199 289 235 265 238 251 254 244 217 172 187 137 167 152 138 164 131 139 121 139 165 169 156 143 169 181 143 134 155 157 158 155 98 174 153 122 66 111 129 185 133 106
369 316 381 323 295 243 264 260 233 253 271 251 215 199 194 133 143 165 189 159 187 162 128 133 166 174 166 172 178 163 160 190 126 166 138 157 147 139 83 114 136 150 164 149 163
351 370 411 248 199 277 259 267 261 241 260 271 226 211 197 196 195 175 127 186 117 164 178 121 133 138 149 174 182 146 172 151 181 172 168 182 175 174 168 170 179 184 177 173 172
335 337 375 352 323 209 215 185 278 267 236 249 269 228 214 198 209 197 198 201 182 185 128 123 140 130 146 151 172 182 176 168 174 147 152 174 175 139 170 177 170 182 168 172 183
320 337 330 393 269 181 229 209 280 275 257 235 257 269 216 210 208 208 203 195 187 184 134 181 148 125 122 145 144 181 146 157 140 154 185 182 175 174 182 158 177 178 181 183 175
402 313 316 342 334 161 298 211 177 226 223 267 239 251 267 215 207 207 211 203 188 195 191 193 180 140 157 188 183 126 145 168 198 186 185 173 173 172 170 185 187 190 193 194 195
376 420 305 338 366 321 305 299 285 216 213 249 259 233 243 246 242 209 202 201 206 209 204 200 197 189 190 190 180 183 131 180 136 108 188 186 182 176 192 186 187 188 193 196 184
446 420 302 328 372 333 313 301 217 222 230 211 208 255 256 227 235 249 208 206 199 199 210 210 205 193 182 188 189 192 191 191 196 127 189 175 175 182 195 195 206 213 195 192 189
440 373 397 318 314 344 309 297 299 271 216 246 193 225 80 249 227 223 231 257 255 205 201 200 207 205 199 194 193 195 144 191 187 189 187 185 184 178 192 198 204 218 224 225 214
424 356 444 300 321 351 313 299 292 284 182 212 263 241 269 267 260 244 221 221 230 243 266 242 197 195 198 200 204 205 207 214 219 223 215 178 180 177 215 220 210 198 205 206 199
415 418 422 307 332 357 321 300 302 285 279 269 203 253 245 264 260 242 241 205 219 220 225 260 256 252 221 197 195 205 204 204 205 208 207 206 203 207 213 212 210 214 211 207 208
414 416 408 449 309 335 330 297 297 288 273 248 151 254 241 202 226 242 247 243 219 206 220 226 240 265 264 261 220 215 201 209 210 211 213 212 207 205 202 240 319 231 260 315 329
Wind_Speed
90 78 70 61 58 55 54 53 58 45 43 44 46 42 48 53 41 45 48 45 37 24 15 24 23 30 23 28 21 21 18 16 11 22 10 19 22 10 13 19 22 23 16 17 25
68 67 76 56 71 61 60 60 56 52 51 40 53 53 47 56 52 39 51 47 47 35 45 18 31 29 39 33 22 26 25 20 20 21 14 17 17 21 21 12 14 21 19 23 23
74 78 69 88 66 75 56 77 57 58 52 50 67 58 49 43 56 54 55 46 52 51 30 32 22 22 44 31 40 32 27 29 22 22 24 20 18 21 17 23 17 19 14 33 18
84 98 94 68 59 77 87 66 60 67 55 61 60 48 50 44 45 45 58 53 43 46 43 24 30 41 32 44 32 40 32 29 31 28 31 24 21 30 24 20 22 23 19 18 33
105 81 80 72 93 66 75 91 58 64 60 70 53 59 51 66 59 49 56 49 42 54 51 51 42 34 32 33 45 34 40 40 24 31 29 30 25 23 27 30 33 25 32 35 36
97 78 88 76 63 94 85 66 71 62 68 65 66 57 60 65 51 59 54 55 40 41 58 54 51 50 39 37 43 45 37 44 36 30 34 30 25 24 37 34 36 28 28 29 32
99 97 102 108 104 89 83 56 78 72 69 55 74 68 57 74 53 59 52 54 61 49 62 50 56 55 46 45 45 42 20 19 44 32 42 13 15 37 34 36 32 36 36 34 29
102 100 97 103 82 93 83 81 85 75 58 64 70 64 75 63 59 60 55 49 68 69 59 63 61 42 57 33 36 51 35 20 25 45 22 28 34 33 35 38 39 40 36 37 36
96 102 98 74 110 82 81 101 71 77 72 56 77 68 74 76 61 67 61 55 53 63 57 50 50 58 45 57 49 39 53 49 43 35 31 39 33 29 21 35 41 34 35 39 42
96 95 103 98 97 98 84 108 71 86 79 81 73 68 77 71 55 66 59 58 55 61 67 51 52 51 62 60 34 45 35 23 24 36 37 40 24 21 39 40 48 26 44 32 45
83 95 103 99 99 106 108 90 105 92 77 96 82 80 89 79 70 69 72 72 56 70 75 57 59 57 60 53 39 62 48 48 40 50 32 22 23 46 29 49 39 29 56 56 46
89 79 95 102 100 101 114 116 107 93 73 100 77 84 64 74 81 57 80 56 62 61 64 64 64 65 58 62 65 60 55 65 29 43 54 27 36 47 26 24 48 56 53 42 54
79 92 99 100 101 101 103 111 120 109 85 90 87 87 60 59 57 70 75 64 64 72 70 76 76 66 58 55 37 43 64 60 64 42 48 57 53 38 55 50 46 49 59 63 44
73 73 94 104 95 105 102 103 114 123 119 114 77 92 96 87 84 72 75 69 70 84 70 73 71 69 62 71 73 67 69 62 62 55 33 51 55 63 54 70 68 64 47 51 49
70 90 82 86 103 107 101 105 109 119 126 116 105 91 94 95 61 84 63 56 66 68 67 72 68 80 75 65 56 59 64 62 65 64 49 46 51 66 45 42 65 62 53 52 50
52 77 87 80 102 100 110 108 109 115 131 121 106 107 89 89 89 83 84 74 83 58 71 76 81 74 70 78 81 65 62 68 66 60 55 28 68 62 48 12 33 46 75 51 40
58 69 90 99 106 103 109 114 115 118 119 114 118 112 113 94 90 88 104 90 104 88 67 67 83 87 81 79 81 79 79 86 51 65 61 68 63 62 25 51 59 59 65 60 66
64 63 73 97 96 111 111 118 123 114 111 107 115 119 118 117 110 106 67 98 64 86 95 66 72 74 81 85 98 69 81 69 79 75 71 78 75 79 82 81 82 81 74 73 73
72 73 70 100 107 102 105 98 118 116 100 102 103 118 122 113 118 114 112 116 99 109 72 66 77 66 75 75 86 87 80 78 77 66 69 78 79 71 84 84 78 83 76 75 78
78 75 79 89 113 100 115 105 114 110 107 107 104 100 118 117 117 117 117 112 109 108 86 103 79 63 58 73 72 90 71 76 63 70 81 80 79 83 90 76 83 82 82 81 78
55 78 88 92 114 54 122 97 81 92 99 109 101 101 97 117 116 115 117 117 107 116 114 112 94 82 88 101 96 59 72 83 98 87 86 80 81 82 83 89 87 86 85 83 82
60 63 93 94 109 115 112 114 107 92 89 102 104 105 104 101 105 117 112 113 115 119 115 116 113 103 105 104 94 96 70 89 64 50 85 80 82 86 93 91 88 86 85 84 82
40 57 96 97 101 111 110 112 94 91 100 92 89 104 100 102 103 96 114 114 113 110 111 111 110 108 97 103 103 105 101 96 96 64 87 79 85 87 90 90 93 92 87 84 84
37 67 79 99 98 111 112 110 110 107 95 100 86 90 32 98 105 106 102 91 95 111 109 107 105 106 108 108 106 104 76 97 91 90 90 88 89 86 90 91 90 88 86 86 86
42 70 48 97 97 108 114 112 109 108 76 91 101 96 89 92 93 95 102 100 93 86 86 94 107 106 108 108 108 105 103 101 96 93 90 88 86 87 94 89 87 87 87 86 86
41 46 50 100 98 105 116 114 113 106 105 100 89 93 95 89 83 86 88 99 97 97 93 81 84 89 107 106 101 102 99 98 100 98 94 94 92 94 91 90 90 89 88 89 89
38 39 54 46 99 101 114 112 104 102 98 94 71 94 92 84 85 86 89 91 100 100 93 86 80 76 79 82 94 90 101 99 96 96 95 93 95 92 93 84 72 83 75 69 57
Wind_Direction
245 244 243 227 241 239 234 229 236 226 229 225 229 232 232 231 234 239 234 239 230 230 238 246 248 231 219 244 236 243 245 245 205 263 233 230 239 234 237 239 240 238 257 253 244
231 228 239 238 235 236 229 237 230 232 230 227 230 236 232 230 229 233 238 238 237 232 239 243 238 245 242 246 218 250 254 213 260 207 264 270 265 234 234 259 274 248 263 250 259
227 239 232 241 234 244 235 252 225 232 230 225 230 233 232 230 231 223 232 237 233 234 222 241 245 223 239 243 243 244 212 260 255 206 227 230 244 265 256 247 269 241 276 253 272
239 236 238 237 239 233 246 229 230 237 229 236 236 229 231 227 236 235 224 231 241 239 244 240 225 241 216 240 247 244 241 225 257 262 264 225 253 226 238 252 251 281 245 273 262
238 235 238 234 235 232 225 243 232 229 232 234 225 230 230 228 228 237 233 238 238 235 239 242 243 239 242 244 241 226 242 243 242 253 221 233 240 214 274 273 242 243 244 267 267
241 239 232 239 240 233 237 227 240 232 232 233 234 226 233 232 228 231 231 235 234 238 236 241 242 243 242 244 245 247 249 245 245 241 257 240 248 257 258 277 264 259 261 273 267
236 238 236 230 229 233 228 236 225 238 231 228 231 236 230 228 226 232 230 230 230 240 236 239 240 242 245 245 245 250 245 250 250 254 253 258 262 269 271 275 265 276 280 278 260
234 229 234 232 238 228 230 235 235 239 233 231 232 229 231 233 227 229 232 232 231 234 233 233 236 229 239 241 239 244 249 238 244 256 256 265 258 243 242 276 279 281 264 279 276
225 229 227 233 227 238 225 229 223 230 227 232 231 229 233 231 228 235 232 231 234 232 233 237 236 236 241 240 244 243 245 248 252 254 239 254 262 273 282 266 274 248 271 270 278
232 229 226 226 230 229 239 226 243 228 233 240 230 233 234 227 231 224 226 231 235 238 234 236 238 237 237 237 238 248 246 245 251 246 255 244 266 276 264 257 274 287 270 283 278
237 223 224 223 227 226 227 235 226 233 218 235 236 235 232 225 229 235 234 232 232 233 239 234 235 238 238 243 242 245 246 249 251 251 261 262 266 264 278 265 261 290 276 277 276
237 237 224 223 223 226 224 226 227 232 238 232 236 232 238 231 231 230 230 233 232 232 234 234 234 238 239 241 243 243 245 247 253 252 250 264 265 258 283 286 262 268 269 260 277
236 221 222 221 223 224 226 225 226 226 233 236 221 232 231 239 237 231 230 232 235 234 235 231 236 241 239 239 238 244 253 248 254 246 253 255 259 267 261 264 258 264 270 273 260
235 228 220 222 228 224 223 227 226 225 225 225 233 236 230 234 223 235 235 237 236 239 236 233 241 242 237 248 244 243 247 248 250 248 265 254 256 260 261 266 270 272 266 263 264
239 229 228 231 221 221 223 224 226 226 224 223 230 239 227 229 240 229 233 238 243 236 235 234 238 245 248 242 241 245 245 246 246 246 249 253 257 260 270 269 267 263 262 266 268
231 227 223 232 219 221 222 222 223 225 225 219 225 228 237 229 236 233 235 239 238 233 240 237 240 241 238 245 250 245 248 250 246 249 250 259 257 257 264 214 279 265 272 273 282
225 221 213 214 215 220 220 222 222 224 227 222 222 225 227 237 238 234 234 233 235 232 243 241 235 240 240 245 246 245 248 253 254 256 248 257 254 251 261 266 269 266 269 269 272
227 220 214 219 227 218 219 221 223 222 225 225 220 223 226 228 228 233 237 235 234 239 242 237 244 242 240 245 249 243 248 250 254 252 256 261 262 263 261 265 270 271 271 272 274
230 220 214 210 213 225 225 233 221 224 222 223 225 223 226 228 229 231 232 232 235 237 238 237 245 246 247 247 248 250 251 251 252 248 251 256 259 260 265 267 268 270 271 273 275
227 218 215 207 216 229 224 227 220 222 222 223 223 224 225 227 229 231 232 233 234 236 242 239 240 245 243 251 252 251 252 253 255 255 255 258 260 261 264 264 267 270 271 273 273
221 217 214 210 209 231 213 225 230 223 223 225 224 222 226 228 229 230 232 232 233 236 238 239 240 249 248 249 249 250 252 257 258 257 256 253 256 261 265 267 267 269 271 272 273
217 213 214 209 206 211 213 215 218 221 222 222 226 222 222 226 229 231 232 233 235 237 238 239 240 243 246 249 249 252 253 250 250 253 256 260 262 260 263 264 267 269 270 271 270
223 211 213 209 205 208 210 213 220 223 221 224 227 227 226 225 228 231 234 234 237 238 240 241 241 242 243 247 250 251 250 253 257 251 259 255 257 261 264 266 268 270 269 271 272
223 207 207 210 208 204 208 211 212 216 219 221 229 227 238 227 227 229 232 233 234 239 241 242 243 246 247 248 251 252 250 255 255 258 256 258 259 259 263 266 269 272 273 273 273
221 209 214 211 206 202 206 209 211 211 223 219 220 228 227 229 230 228 233 235 237 239 240 242 243 244 246 248 251 253 256 257 260 262 261 258 260 261 268 271 272 270 271 272 272
221 218 214 208 205 201 204 207 211 207 210 213 222 221 227 230 231 234 233 235 235 237 238 239 240 242 245 247 250 252 256 258 257 259 262 262 264 265 267 269 270 271 271 271 272
216 219 214 216 206 203 203 208 209 208 208 213 230 219 226 226 229 231 232 231 232 236 237 240 241 242 245 249 252 256 254 257 260 261 263 264 264 267 267 268 268 270 271 269 270